Temperature
16 16 16 16 16 16 16 15 15 15 15 15 15 15 15 15 15 15 15 15 15 15 15 15 15 15 15 15 15 15 15 15 15 15 15 15 15 15 15 15 15 15 15
16 16 16 16 16 16 15 15 15 15 15 15 15 15 15 15 15 15 15 15 15 15 15 15 15 15 15 15 15 15 15 15 15 15 15 15 15 15 15 15 15 15 15
16 15 15 16 16 15 15 15 15 15 15 15 15 15 15 15 15 15 15 15 15 15 15 15 15 15 15 15 15 15 15 15 14 14 14 14 14 14 14 14 14 15 15
15 15 15 15 15 15 15 15 15 15 15 15 15 15 15 15 15 15 15 15 15 15 15 15 15 15 15 15 15 15 15 14 14 14 14 14 14 14 14 14 14 14 14
15 15 15 15 15 15 15 15 15 14 14 15 15 14 14 14 14 15 14 14 14 14 14 15 15 15 15 15 15 15 14 14 14 14 13 14 14 14 14 14 14 14 14
15 15 15 15 15 15 15 15 15 14 14 14 14 14 14 14 14 14 14 14 14 14 14 14 14 15 15 15 14 14 14 14 14 13 13 13 13 13 14 14 14 14 14
14 14 14 14 14 14 14 15 14 14 14 14 14 14 14 14 14 14 14 14 14 14 14 14 14 14 14 14 14 14 14 14 13 13 13 13 13 13 13 13 13 13 14
14 14 14 14 14 14 14 14 14 14 14 14 14 14 14 14 14 14 14 14 14 14 14 14 14 14 14 14 14 14 14 14 13 13 13 13 13 13 13 13 13 13 13
14 14 14 14 14 14 14 14 14 14 14 14 13 14 14 14 14 14 14 14 14 14 14 14 14 14 14 14 14 14 14 13 13 13 13 13 13 13 13 13 13 13 13
13 13 13 13 13 13 13 13 13 13 13 13 13 13 13 14 14 14 14 14 14 14 14 14 14 14 14 14 14 13 13 13 13 13 13 13 13 13 13 13 13 13 13
13 13 13 13 13 13 13 13 13 13 13 13 13 13 13 13 13 13 14 14 14 14 14 14 14 14 14 13 13 13 13 13 13 13 13 13 12 12 12 12 12 12 12
13 13 12 13 13 13 13 13 13 13 13 13 13 13 13 13 13 13 13 13 13 13 13 13 13 13 13 13 13 12 12 12 12 12 12 12 12 12 12 12 12 12 12
12 12 12 12 12 12 13 12 12 12 12 12 12 12 12 12 13 13 13 13 13 13 13 13 13 13 13 13 13 12 12 12 12 12 12 12 12 12 12 12 12 12 12
12 12 12 12 12 12 12 12 12 12 12 12 12 12 12 12 12 12 13 13 13 13 13 13 13 12 12 12 12 12 12 12 12 12 12 12 12 12 12 12 11 11 11
12 12 12 12 12 12 12 12 12 12 12 12 12 12 12 12 12 12 12 12 12 12 12 12 12 12 12 12 12 12 12 12 12 12 12 12 12 12 12 11 11 11 11
12 12 12 12 12 12 12 12 11 11 12 12 12 12 12 12 12 12 12 12 12 12 12 12 12 12 12 12 12 11 11 11 11 11 11 11 11 11 11 11 11 11 11
11 11 11 11 11 11 11 11 11 11 11 11 11 11 11 11 12 12 12 12 12 12 12 12 12 12 12 11 11 11 11 11 11 11 11 11 11 11 11 11 11 11 11
11 11 11 11 11 11 11 11 11 11 11 11 11 11 11 11 11 11 12 12 12 12 11 11 11 11 11 11 11 11 11 11 11 11 11 11 11 11 11 11 11 11 10
11 11 10 10 10 11 11 11 11 11 11 11 11 11 11 11 11 11 11 11 11 11 11 11 11 11 11 11 11 11 11 11 11 11 11 11 10 10 10 10 10 10 10
10 10 10 10 10 10 10 10 10 10 11 11 11 11 11 11 11 11 11 11 11 11 11 11 11 11 11 11 10 10 10 10 10 10 10 10 10 10 10 10 10 10 10
10 10 10 10 10 10 10 10 10 10 10 10 10 10 11 11 11 11 11 11 11 11 11 10 10 10 10 10 10 10 10 10 10 10 10 10 10 10 10 10 10 10 10
10 10 10 10 9 9 9 10 10 10 10 10 10 10 10 10 10 10 10 10 10 10 10 10 10 10 10 10 9 9 9 9 9 9 9 9 9 9 9 9 9 9 9
9 9 9 9 9 9 9 9 9 9 9 9 9 9 10 10 10 10 10 10 10 10 10 10 10 10 9 9 9 9 9 8 8 9 9 9 9 9 9 9 9 9 9
9 9 9 9 9 9 9 9 9 9 9 9 9 9 9 9 10 10 10 9 9 9 9 9 9 9 9 9 9 9 9 9 8 8 8 8 8 8 8 8 8 8 8
9 9 9 9 8 8 8 8 9 9 9 9 9 9 9 9 9 9 9 9 9 9 9 9 9 9 9 9 8 8 8 8 8 8 7 8 8 8 8 8 8 8 8
9 9 9 8 8 8 8 8 8 8 8 8 8 8 8 8 9 8 9 9 9 9 9 8 8 8 8 8 8 8 8 8 8 8 8 7 7 7 7 7 7 7 7
Wind_Speed
7 10 11 9 8 8 7 7 8 7 7 7 7 7 8 8 8 8 8 8 8 8 8 8 9 9 9 9 9 9 9 9 9 9 9 10 10 10 10 10 10 10 11
7 11 12 10 8 8 7 6 7 7 7 6 7 7 8 8 7 7 7 7 7 7 7 7 8 9 9 8 8 8 7 7 6 6 7 8 9 9 9 10 10 9 11
8 11 11 10 8 8 8 7 6 7 7 7 8 8 8 8 7 7 7 7 7 7 7 7 7 8 8 8 7 7 6 5 3 2 3 6 8 9 9 9 10 10 10
8 10 9 10 8 8 8 7 7 6 7 7 7 7 8 8 7 7 7 7 7 7 7 7 7 7 7 7 7 5 4 2 1 1 1 6 8 9 9 9 9 9 9
7 9 10 10 8 8 8 7 7 6 7 7 7 7 8 8 8 7 7 7 7 7 7 6 6 6 6 6 6 4 2 1 2 1 5 9 10 9 9 9 8 9 9
6 8 10 10 8 7 7 8 8 7 7 7 7 7 7 8 7 7 8 7 7 6 6 6 6 6 6 6 5 3 2 2 4 2 6 9 9 9 8 8 8 8 8
5 6 10 10 8 7 8 8 8 7 7 7 7 7 7 7 7 7 8 7 7 6 6 6 6 6 6 5 4 3 2 4 1 4 7 9 9 8 7 7 7 7 7
5 5 8 9 9 7 8 9 8 8 8 8 8 8 7 7 7 7 7 7 7 6 6 6 5 5 5 4 3 2 2 3 2 5 8 9 8 7 7 6 6 7 7
4 5 6 7 8 7 7 9 9 9 9 8 8 8 7 7 7 7 7 7 6 6 6 5 5 5 4 3 2 0 2 3 3 4 7 8 8 8 7 7 7 7 6
2 5 5 5 6 6 6 8 9 9 9 9 8 8 8 8 7 7 6 6 6 6 6 5 5 4 4 2 1 1 2 3 2 6 7 7 8 7 7 7 7 6 6
1 3 4 4 4 5 5 7 8 9 9 9 9 10 9 7 7 6 6 6 6 6 5 5 4 4 4 2 1 2 2 1 6 7 7 7 7 6 6 6 6 6 6
2 2 4 4 4 4 4 6 7 7 8 7 8 8 6 6 7 7 7 6 6 6 5 4 5 5 4 3 2 1 1 4 6 6 6 8 7 6 6 6 6 6 6
3 2 3 4 3 3 2 3 4 5 6 6 7 7 6 7 8 8 6 5 5 5 4 4 4 4 4 3 2 2 3 5 6 6 7 8 7 6 6 5 5 5 5
3 3 2 4 4 3 3 2 3 3 3 3 6 7 5 4 4 5 5 5 4 4 4 4 3 2 3 3 4 3 4 5 6 7 7 8 8 7 6 6 5 5 5
4 3 3 3 4 4 3 2 2 2 2 4 5 5 6 3 3 3 3 4 3 3 3 2 2 2 3 3 3 3 4 5 7 8 8 9 9 8 7 6 5 5 5
5 5 4 4 4 4 4 3 2 2 3 4 4 3 5 4 3 2 2 2 2 2 2 2 3 3 2 2 2 3 4 5 6 8 8 8 8 8 7 6 5 5 5
5 4 4 4 4 5 4 4 3 3 3 3 4 4 4 5 4 3 2 2 2 2 1 1 3 3 2 2 2 3 4 4 5 7 8 8 8 8 7 6 5 5 5
4 4 4 4 4 4 4 4 3 2 3 3 4 5 5 5 5 3 2 1 3 3 2 1 2 2 2 2 2 2 2 3 5 6 7 7 6 6 6 6 6 5 4
5 5 5 4 4 4 4 3 3 3 3 3 4 5 5 5 5 3 2 2 3 2 1 1 2 2 2 2 2 1 1 1 2 4 5 6 6 6 5 5 5 5 4
5 5 6 6 4 4 4 3 2 3 2 3 4 4 5 5 5 4 3 2 3 2 1 1 2 2 2 2 2 2 1 1 2 2 3 5 5 5 4 4 4 3 3
5 5 5 6 5 4 3 3 3 3 2 3 3 5 6 5 5 4 3 2 2 2 2 2 2 2 2 2 2 1 1 1 2 2 2 2 3 3 3 3 3 3 3
5 6 5 5 5 5 3 3 3 3 2 2 3 4 5 5 5 4 3 3 2 2 2 2 2 2 1 2 2 2 0 1 1 1 1 2 2 2 2 2 2 2 2
6 6 6 5 5 5 4 3 3 3 2 2 2 3 3 4 4 4 4 3 2 2 3 2 2 2 2 1 1 2 2 2 1 1 2 2 2 1 1 2 2 1 1
6 6 6 6 6 5 5 4 6 4 4 3 3 3 2 3 4 4 3 3 2 2 3 2 2 2 3 2 1 0 1 2 2 1 1 2 2 2 2 2 2 2 2
6 7 6 6 6 6 5 5 5 4 3 3 3 4 3 2 3 4 4 3 2 2 2 2 2 2 1 2 2 1 1 0 1 2 2 2 2 2 2 2 2 2 2
6 6 6 7 6 6 6 5 5 6 5 5 4 4 3 2 2 3 3 3 2 2 2 2 2 2 2 2 1 2 2 1 2 2 2 2 2 2 2 2 2 2 2
Wind_Direction
114 126 136 131 126 123 119 117 115 114 120 124 125 121 119 115 110 107 105 104 100 97 94 92 89 84 80 84 85 86 85 84 83 84 82 81 77 72 71 66 68 72 72
119 129 139 135 132 132 129 125 122 120 125 128 126 122 122 120 116 111 111 108 106 103 99 95 91 86 81 82 86 87 90 93 95 98 98 91 83 75 70 63 64 73 73
119 128 140 138 138 140 137 133 132 129 131 129 125 123 125 124 123 120 114 108 106 104 100 97 92 90 86 82 85 90 91 91 101 127 133 120 97 84 76 72 72 76 76
114 125 137 140 143 146 142 139 141 137 134 131 129 129 128 124 120 117 113 106 103 100 100 99 95 93 92 87 87 90 91 83 31 260 123 106 98 87 82 77 77 76 75
109 126 135 138 146 148 148 146 145 140 135 134 133 133 128 120 118 115 112 109 105 100 98 101 99 99 97 93 90 85 76 26 333 347 80 87 90 92 85 79 77 77 75
111 121 135 142 147 150 151 150 149 147 141 140 136 132 129 125 121 116 112 109 106 101 95 98 102 99 102 100 93 79 43 345 322 63 85 86 88 93 89 82 80 78 76
110 113 141 148 149 154 157 155 154 154 145 142 136 130 129 129 125 119 115 111 106 102 100 98 102 102 101 101 93 67 17 335 349 78 81 80 85 92 91 85 84 81 77
116 112 141 154 152 155 161 162 159 152 146 141 137 133 126 125 127 125 122 119 115 113 109 104 98 108 108 105 97 68 357 341 22 86 90 85 88 94 94 89 89 83 74
115 122 136 155 154 154 159 163 160 155 148 145 141 136 130 123 122 122 121 118 117 119 117 107 102 100 112 111 105 85 333 334 11 68 90 90 94 92 90 87 88 84 78
117 131 136 154 153 151 159 161 159 156 148 146 143 137 129 123 119 120 122 121 117 114 116 112 110 111 108 119 144 246 303 325 64 70 79 91 97 95 90 90 89 84 78
190 144 146 151 152 151 158 160 151 150 147 144 140 140 137 137 128 121 118 128 129 126 124 130 132 137 135 144 197 245 287 65 82 75 73 93 103 102 97 98 93 87 79
229 191 160 160 154 147 157 155 158 153 151 153 148 153 159 147 133 120 119 125 136 136 137 152 159 164 166 171 201 250 33 76 85 84 80 97 104 103 98 100 97 90 83
218 213 168 164 150 144 132 146 155 157 163 162 158 168 149 124 122 124 126 133 146 157 162 170 186 192 160 147 140 98 77 77 83 81 83 98 102 102 100 100 97 92 89
214 215 204 163 156 146 130 131 145 148 158 157 164 172 151 130 135 145 147 158 164 172 168 182 188 160 141 139 123 113 100 96 102 95 90 100 101 102 98 95 91 88 86
205 206 215 176 161 151 141 156 149 143 144 146 156 169 144 129 138 135 134 139 148 148 171 175 146 125 108 95 101 111 110 104 109 106 99 101 98 98 94 88 86 82 82
203 201 198 187 171 155 156 163 151 133 134 135 135 143 139 135 128 128 117 122 124 135 172 169 132 126 115 93 79 78 90 98 106 114 113 104 101 98 95 88 85 81 78
206 193 189 183 168 161 157 157 137 139 134 128 134 137 125 121 123 119 123 122 123 132 141 106 103 103 104 95 69 60 64 70 94 109 113 115 108 100 98 94 87 81 75
196 183 181 181 164 161 155 141 131 139 129 132 134 133 127 124 127 118 119 123 121 117 101 97 112 108 103 100 86 65 66 65 69 88 98 105 110 109 109 105 96 81 73
187 176 166 166 161 155 143 134 132 133 136 134 132 130 133 133 134 119 116 119 120 102 84 126 106 124 123 99 90 88 85 98 93 91 94 95 99 106 112 119 114 99 79
177 171 164 164 162 146 138 136 126 126 142 139 133 133 136 140 138 126 113 114 115 105 102 110 118 109 121 124 101 75 81 114 97 97 106 106 107 113 116 118 123 115 105
169 166 165 160 161 151 153 161 160 158 148 148 144 141 139 138 138 132 128 119 113 128 135 120 108 117 117 115 99 61 7 107 125 135 117 112 111 121 124 114 113 116 118
170 167 165 161 166 165 167 170 165 153 141 146 148 145 143 141 139 140 134 140 132 133 121 110 106 118 149 144 141 130 125 328 298 187 156 157 157 127 124 119 111 113 110
171 167 171 165 163 165 160 151 138 117 112 139 152 150 142 136 130 125 130 133 149 150 151 142 135 127 156 206 166 145 155 201 224 247 213 182 178 182 165 137 128 130 126
170 163 166 160 159 166 168 165 157 160 158 172 167 155 152 141 136 133 129 128 138 140 146 156 139 148 156 186 237 225 198 158 157 206 262 225 204 210 216 189 168 186 182
159 158 164 160 163 169 176 178 171 165 155 145 144 148 153 151 141 141 136 130 139 145 151 155 152 164 177 188 190 206 250 271 188 175 223 239 255 246 233 213 194 194 192
158 160 165 164 168 173 178 185 182 169 156 150 155 162 158 158 153 147 140 139 143 150 162 171 178 184 200 204 209 202 191 198 210 189 208 221 238 247 251 232 204 199 190
Height
1508 1508 1510 1511 1513 1514 1515 1517 1518 1519 1520 1521 1522 1523 1524 1525 1527 1528 1529 1529 1530 1531 1532 1533 1533 1534 1534 1535 1536 1536 1537 1538 1538 1539 1540 1540 1541 1541 1541 1541 1542 1542 1542
1507 1508 1509 1510 1512 1514 1515 1516 1518 1519 1520 1522 1523 1524 1525 1526 1527 1528 1529 1530 1531 1531 1532 1533 1534 1534 1535 1536 1536 1537 1538 1538 1539 1540 1541 1541 1541 1542 1542 1542 1543 1543 1543
1506 1507 1509 1510 1512 1513 1515 1516 1518 1519 1520 1522 1523 1524 1525 1526 1527 1528 1529 1530 1531 1531 1532 1533 1534 1535 1535 1536 1537 1537 1538 1539 1540 1541 1541 1542 1542 1543 1543 1543 1544 1544 1544
1506 1507 1508 1509 1511 1513 1514 1516 1517 1519 1520 1521 1523 1524 1525 1526 1527 1528 1529 1530 1531 1531 1532 1533 1534 1535 1535 1536 1537 1538 1539 1540 1540 1541 1542 1542 1543 1543 1543 1544 1544 1544 1545
1506 1507 1508 1509 1510 1512 1514 1515 1516 1518 1520 1521 1522 1523 1524 1525 1526 1528 1528 1529 1530 1531 1532 1533 1534 1534 1535 1536 1537 1538 1539 1540 1541 1542 1542 1543 1543 1543 1544 1544 1544 1545 1545
1506 1507 1507 1509 1510 1511 1513 1514 1516 1517 1519 1520 1522 1523 1524 1525 1526 1527 1528 1529 1530 1531 1532 1533 1534 1534 1535 1536 1537 1538 1539 1540 1541 1542 1542 1543 1543 1543 1544 1544 1544 1545 1545
1505 1506 1507 1508 1509 1510 1512 1513 1515 1517 1518 1519 1521 1522 1523 1524 1526 1527 1528 1529 1529 1530 1531 1532 1533 1534 1535 1536 1537 1537 1538 1540 1541 1541 1542 1543 1543 1543 1544 1544 1545 1545 1545
1505 1505 1506 1507 1508 1509 1511 1512 1514 1516 1517 1518 1520 1521 1522 1524 1525 1526 1527 1528 1529 1530 1531 1532 1533 1533 1534 1535 1536 1537 1538 1539 1540 1541 1542 1542 1543 1543 1543 1544 1544 1545 1545
1504 1504 1505 1506 1507 1508 1510 1511 1513 1515 1516 1518 1519 1520 1522 1523 1524 1525 1526 1527 1528 1529 1530 1531 1532 1533 1534 1535 1536 1537 1538 1539 1540 1541 1541 1542 1542 1543 1543 1543 1544 1544 1545
1503 1503 1503 1505 1506 1507 1508 1510 1512 1513 1515 1516 1518 1519 1521 1522 1523 1524 1525 1526 1527 1528 1529 1530 1532 1533 1533 1534 1535 1537 1538 1539 1539 1540 1540 1541 1542 1542 1543 1543 1543 1544 1544
1501 1501 1501 1503 1504 1505 1507 1508 1510 1512 1513 1515 1517 1518 1520 1521 1522 1523 1524 1525 1526 1527 1529 1530 1531 1532 1533 1534 1535 1536 1537 1538 1539 1539 1540 1541 1541 1542 1542 1542 1543 1543 1543
1499 1500 1500 1501 1502 1504 1505 1506 1508 1510 1512 1514 1515 1517 1518 1519 1521 1522 1523 1524 1525 1527 1528 1529 1530 1531 1532 1533 1534 1536 1536 1537 1538 1538 1539 1540 1540 1541 1541 1541 1542 1542 1543
1497 1497 1498 1499 1500 1502 1503 1505 1506 1508 1510 1512 1514 1516 1517 1518 1519 1520 1522 1523 1524 1526 1527 1528 1529 1530 1531 1532 1533 1534 1535 1536 1537 1538 1538 1539 1539 1540 1540 1541 1541 1541 1542
1494 1495 1496 1497 1498 1500 1501 1503 1505 1506 1508 1510 1512 1514 1516 1516 1518 1519 1520 1522 1523 1524 1526 1527 1528 1529 1530 1531 1532 1533 1535 1535 1536 1537 1537 1538 1538 1539 1539 1540 1540 1540 1540
1491 1492 1493 1494 1496 1497 1499 1500 1503 1504 1506 1508 1510 1512 1514 1515 1516 1517 1519 1521 1522 1523 1525 1526 1527 1528 1529 1530 1531 1532 1533 1534 1535 1536 1536 1537 1537 1538 1538 1539 1539 1539 1539
1487 1489 1490 1491 1493 1495 1496 1498 1500 1502 1504 1506 1508 1510 1512 1513 1515 1516 1517 1519 1521 1522 1523 1525 1526 1527 1528 1529 1530 1531 1532 1533 1534 1534 1535 1535 1536 1537 1537 1538 1538 1538 1538
1484 1485 1487 1488 1490 1492 1494 1495 1498 1500 1503 1504 1506 1508 1510 1512 1513 1514 1516 1517 1519 1520 1522 1523 1524 1525 1527 1528 1529 1530 1531 1531 1532 1533 1533 1534 1534 1535 1536 1536 1536 1537 1537
1480 1482 1483 1485 1487 1489 1491 1492 1495 1498 1500 1502 1504 1506 1508 1510 1511 1513 1514 1515 1517 1518 1520 1521 1522 1523 1525 1526 1527 1528 1529 1530 1530 1531 1532 1532 1533 1534 1534 1535 1535 1535 1535
1477 1478 1480 1482 1484 1486 1488 1490 1493 1495 1498 1499 1502 1504 1506 1507 1509 1511 1512 1513 1515 1516 1517 1519 1520 1521 1522 1524 1525 1526 1527 1527 1528 1529 1530 1531 1531 1532 1532 1533 1533 1533 1534
1473 1475 1476 1478 1480 1483 1486 1488 1490 1492 1495 1497 1499 1501 1503 1505 1507 1508 1510 1511 1512 1513 1515 1516 1518 1519 1520 1522 1523 1524 1525 1526 1527 1527 1528 1529 1530 1530 1531 1531 1531 1531 1531
1469 1471 1473 1475 1477 1480 1482 1484 1486 1489 1492 1494 1496 1498 1500 1502 1504 1506 1507 1508 1510 1511 1512 1514 1515 1517 1518 1519 1521 1522 1523 1524 1525 1526 1526 1527 1527 1528 1528 1529 1529 1529 1529
1466 1467 1469 1471 1474 1476 1479 1482 1484 1486 1489 1491 1492 1495 1497 1499 1501 1502 1504 1505 1507 1508 1510 1511 1513 1514 1515 1517 1518 1519 1521 1523 1523 1524 1524 1525 1525 1526 1526 1526 1527 1527 1527
1462 1464 1466 1468 1471 1473 1476 1479 1482 1484 1486 1488 1489 1491 1494 1496 1498 1500 1501 1503 1505 1506 1507 1508 1510 1511 1512 1515 1516 1518 1519 1519 1520 1521 1522 1523 1523 1523 1524 1524 1524 1524 1524
1459 1461 1463 1465 1468 1471 1473 1475 1477 1479 1481 1484 1486 1488 1491 1494 1495 1497 1499 1501 1502 1503 1505 1506 1507 1509 1510 1512 1514 1515 1517 1517 1518 1518 1520 1520 1521 1521 1521 1521 1521 1521 1521
1456 1458 1461 1462 1465 1468 1470 1472 1475 1476 1478 1481 1483 1486 1489 1491 1493 1494 1495 1497 1499 1501 1502 1503 1505 1506 1508 1509 1511 1512 1513 1514 1515 1515 1515 1517 1517 1518 1518 1518 1518 1518 1519
1454 1456 1458 1460 1462 1465 1468 1469 1471 1473 1475 1477 1480 1483 1485 1488 1490 1491 1492 1494 1496 1498 1499 1501 1502 1503 1505 1507 1508 1509 1510 1511 1512 1512 1512 1512 1513 1514 1515 1515 1515 1515 1515